Wind_Speed
24 16 15 17 20 19 17 16 16 14 13 14 15 14 13 15 16 18 18 19 20 19 18 18 19 19 18 19 20 22 24 25 26 31 30 34 33 38 39 39 41 43 41 35 38
15 16 18 19 18 18 18 17 15 12 13 13 13 14 15 17 17 18 19 18 17 17 17 18 19 20 21 22 23 25 25 28 29 33 35 37 40 40 43 46 46 49 51 48 46
19 18 17 18 18 18 16 15 14 14 14 13 13 14 16 16 16 18 18 18 18 17 18 20 21 22 26 27 28 29 30 33 34 37 38 41 45 46 48 50 53 52 57 58 57
16 17 18 19 19 16 15 15 15 15 14 14 14 14 16 18 18 18 18 19 20 20 23 24 26 28 30 33 34 35 36 37 38 41 46 47 49 50 50 49 54 57 61 63 61
18 18 18 17 17 16 16 16 16 15 15 15 16 16 19 21 17 20 19 20 21 23 25 27 29 32 34 35 37 38 41 41 44 47 46 49 51 51 55 57 63 63 64 68 65
22 21 21 19 18 18 18 17 17 18 18 18 18 19 18 21 21 20 22 23 24 26 28 30 33 34 37 38 41 41 44 46 47 49 49 51 54 55 59 58 65 67 68 70 69
23 22 20 20 21 22 21 21 20 21 21 19 18 18 18 20 23 22 24 25 27 31 32 34 37 38 41 44 46 47 49 52 54 54 54 56 60 61 64 67 73 77 75 73 68
26 24 23 24 25 24 24 23 23 22 21 20 19 21 23 24 25 26 28 29 33 35 37 39 42 45 46 49 53 54 55 56 59 62 62 63 67 72 74 75 76 78 80 78 73
26 26 26 28 28 27 27 27 24 23 24 24 25 26 27 28 29 30 33 36 38 41 42 46 51 54 55 57 59 61 62 62 62 67 68 68 66 77 79 82 83 83 83 82 76
27 28 30 30 31 31 29 28 29 26 28 29 29 32 34 34 36 37 38 41 44 46 47 50 56 61 63 65 66 68 70 71 72 76 79 79 75 82 85 83 85 87 89 88 85
28 30 31 33 34 35 33 31 33 33 33 34 35 36 38 41 41 43 45 47 49 51 52 55 62 66 68 70 71 74 76 77 80 84 89 89 87 93 95 99 97 93 93 86 86
33 34 34 35 36 38 39 39 39 40 41 40 42 43 45 47 49 50 52 54 55 56 57 60 66 70 72 75 78 80 81 81 81 89 94 94 91 98 101 102 104 104 102 102 100
37 40 43 42 42 43 41 44 45 45 45 47 48 50 51 52 53 55 57 59 59 62 64 65 72 75 74 76 79 83 89 90 93 93 98 103 95 103 103 109 108 106 108 111 113
35 36 40 43 46 47 50 49 49 48 49 53 56 57 57 57 58 58 60 62 64 66 69 72 78 79 81 84 89 87 94 95 97 100 100 101 104 99 104 109 113 116 115 113 115
40 39 39 42 44 47 47 47 51 52 50 55 58 58 59 62 62 63 63 65 68 71 74 78 81 84 84 87 93 94 96 99 99 103 108 99 116 111 114 112 115 120 120 124 125
47 48 46 45 45 47 49 50 50 50 52 56 57 58 61 65 66 66 68 70 73 76 81 83 88 92 93 97 100 100 100 103 108 114 115 116 125 126 126 124 124 129 128 127 125
52 52 53 52 50 51 50 51 54 57 59 60 60 62 64 67 69 72 73 74 78 78 79 84 91 97 100 102 104 108 114 117 117 120 122 122 125 126 132 134 133 133 132 125 115
55 55 57 57 57 55 54 54 55 58 59 60 63 66 70 70 72 73 77 80 85 86 86 90 93 102 107 107 106 109 118 126 133 133 130 122 129 131 132 136 132 123 120 112 101
60 60 60 59 60 61 61 59 58 61 65 65 65 65 70 73 75 77 81 85 88 88 94 99 98 104 108 114 117 118 123 130 139 137 143 142 142 148 140 130 124 114 103 95 87
64 65 65 65 65 65 67 68 66 67 69 69 69 72 74 77 80 85 88 93 98 100 105 107 106 105 110 117 124 131 135 137 137 143 147 138 136 133 127 120 111 101 92 81 70
66 68 71 72 70 68 69 69 72 72 74 74 77 78 82 84 87 92 96 99 104 107 110 115 119 116 121 128 133 134 138 139 143 142 146 141 132 114 111 105 98 87 79 73 69
69 69 72 72 72 71 72 72 75 74 74 76 79 82 85 89 91 95 98 101 106 111 118 123 130 130 130 132 137 140 140 142 144 135 131 126 118 112 102 90 82 75 68 65 64
74 75 76 75 74 75 74 70 71 76 78 79 80 80 84 90 94 95 102 110 115 120 124 129 137 143 143 139 143 142 134 136 142 135 118 114 102 95 89 83 74 66 62 63 58
76 74 74 75 77 78 79 79 78 76 76 79 84 91 94 97 103 106 110 116 122 127 133 137 136 137 145 143 145 134 127 133 127 119 112 96 90 86 82 76 72 64 59 55 53
79 78 79 80 81 83 84 85 86 84 84 89 94 98 101 106 112 115 120 123 131 136 138 140 137 139 136 133 134 127 127 120 111 104 97 86 83 80 76 74 68 60 53 53 46
83 85 84 86 85 88 90 89 90 92 94 98 102 107 113 116 119 119 125 131 131 131 134 136 136 135 124 124 122 115 117 107 98 92 86 83 79 74 70 65 59 53 49 47 43
86 86 87 88 94 95 95 96 97 98 101 107 111 113 120 124 126 129 132 133 134 132 132 132 132 128 117 115 110 105 98 93 89 86 80 75 70 66 61 55 51 49 45 41 38
Wind_Direction
281 286 292 293 292 298 303 303 306 301 293 288 285 265 252 261 269 278 281 284 295 305 311 311 314 315 314 313 316 317 316 309 314 314 316 322 318 317 315 312 311 312 312 308 303
285 289 289 291 295 299 301 305 306 301 300 294 284 276 272 276 285 287 293 300 305 304 304 306 310 310 308 305 304 306 307 307 306 305 308 310 311 310 308 308 307 303 307 308 302
288 292 296 297 296 298 297 299 299 296 292 291 290 287 285 289 297 295 297 299 301 302 305 304 304 304 304 302 300 299 299 300 301 303 304 302 307 309 305 304 304 299 297 301 299
288 294 298 299 297 293 291 291 291 290 290 291 291 291 294 292 293 297 299 302 303 304 307 306 304 301 301 301 301 301 301 299 303 304 302 301 301 303 300 301 302 300 295 292 295
290 291 292 291 289 288 288 286 285 285 289 292 293 293 291 291 293 296 302 303 303 307 308 309 309 310 307 305 303 303 301 299 298 298 298 299 300 299 297 299 298 298 296 296 295
294 292 290 281 279 279 282 279 281 284 287 288 289 289 289 295 302 302 302 304 305 306 307 311 313 313 310 310 303 300 300 302 300 298 298 295 294 294 295 294 298 296 296 294 291
289 288 282 283 281 279 276 276 277 281 284 285 285 286 293 296 302 304 304 301 301 302 301 301 303 304 303 305 306 305 302 301 301 299 295 297 298 297 297 297 298 297 297 295 294
293 290 283 285 281 276 272 271 276 279 278 278 279 281 290 295 297 298 298 298 299 301 301 301 302 301 300 303 307 307 305 301 300 299 299 300 301 298 299 302 299 298 298 295 296
283 282 281 284 275 270 270 273 272 267 273 277 284 281 289 292 293 296 297 296 297 297 302 305 305 304 304 304 305 306 304 302 300 298 299 299 300 298 299 302 302 299 294 294 293
287 286 285 279 269 270 268 270 273 270 273 279 282 280 284 286 288 292 293 293 296 298 300 303 305 304 305 304 301 301 301 303 301 298 301 300 301 299 297 296 299 297 296 294 293
289 288 285 282 275 276 270 270 276 278 278 281 282 282 283 285 289 291 292 292 295 298 299 303 304 306 305 305 302 298 298 300 298 298 300 300 303 301 301 299 297 295 292 289 287
291 291 289 284 280 276 271 271 274 277 280 283 284 286 284 285 285 287 288 290 292 297 299 302 300 300 301 300 299 300 302 299 297 296 297 295 298 298 297 297 295 293 294 293 291
287 287 287 286 283 280 275 273 275 278 277 280 283 284 284 283 285 288 289 291 292 295 298 299 296 299 299 298 298 298 296 295 297 295 295 294 296 294 292 293 294 292 291 289 289
282 286 286 286 288 286 282 275 272 274 276 281 282 281 282 283 285 290 293 291 291 293 295 296 298 300 301 302 301 300 297 295 295 295 294 292 295 289 290 290 290 290 288 287 289
290 289 288 285 286 288 288 286 282 279 277 280 280 282 284 286 288 289 289 288 290 293 296 298 299 297 298 299 299 300 297 296 294 292 295 291 294 295 292 289 288 290 290 287 284
302 300 296 294 292 288 287 286 286 284 280 280 280 280 283 284 285 284 285 287 290 294 297 298 300 299 299 299 302 300 298 296 295 295 297 295 296 299 295 292 291 291 291 290 289
302 304 304 303 299 294 291 287 284 282 280 278 280 282 281 282 282 283 285 287 289 291 293 294 297 298 299 300 299 298 295 294 293 293 294 295 296 294 295 294 291 290 293 290 287
301 303 303 302 304 300 294 289 286 282 280 278 279 281 282 284 286 287 288 289 291 293 294 296 297 297 297 297 295 293 293 294 296 297 298 297 297 295 297 294 292 293 295 291 291
299 300 299 300 300 301 300 293 290 287 283 282 282 281 281 283 284 285 286 287 288 289 292 294 295 296 296 296 296 295 295 296 296 297 299 300 300 300 299 299 298 296 295 293 290
299 300 301 300 300 300 298 295 292 289 288 287 286 286 285 286 287 289 290 291 292 292 293 295 295 295 295 296 295 295 298 297 296 296 299 300 300 298 299 300 298 297 296 294 286
298 298 298 299 299 299 295 291 290 288 288 288 287 287 288 287 287 289 290 291 292 293 296 297 298 299 299 299 298 298 299 298 298 300 299 301 301 299 299 298 297 296 295 291 286
294 296 297 296 296 297 297 293 289 289 290 290 289 289 289 289 291 291 291 293 295 297 297 299 299 300 300 298 297 298 298 297 299 300 300 299 301 299 299 297 295 294 291 289 285
295 296 295 294 295 296 294 291 290 290 289 289 290 291 291 291 291 294 296 298 299 300 299 298 299 299 299 298 298 298 298 298 297 299 300 301 299 299 298 298 297 292 287 282 279
295 295 295 295 295 295 293 293 291 287 287 289 292 294 295 296 296 297 297 298 298 297 297 298 298 298 299 300 299 298 298 297 299 300 300 299 299 298 300 298 293 290 288 283 277
295 295 295 294 293 295 294 294 293 290 289 290 293 296 297 298 297 298 298 297 298 299 298 298 298 296 298 299 299 301 299 300 300 300 300 300 300 298 297 295 292 291 287 280 275
294 294 293 292 294 295 294 293 293 291 291 292 295 297 298 297 297 296 296 297 298 298 299 299 298 298 301 302 302 303 301 301 300 299 300 300 299 298 295 292 291 289 282 279 276
292 293 294 294 294 294 295 294 295 293 293 294 295 296 296 296 297 298 299 298 298 299 300 302 301 301 303 303 304 302 302 301 300 300 300 300 298 295 293 291 287 283 282 278 276
Height
10907 10907 10908 10908 10907 10906 10905 10905 10903 10902 10901 10901 10900 10900 10900 10900 10900 10900 10899 10899 10898 10897 10896 10895 10894 10893 10892 10891 10889 10887 10886 10883 10883 10879 10878 10874 10874 10871 10868 10867 10864 10861 10861 10863 10858
10905 10905 10904 10903 10903 10902 10901 10900 10899 10898 10898 10897 10897 10897 10898 10897 10897 10897 10896 10895 10894 10893 10892 10891 10890 10889 10887 10886 10885 10883 10882 10878 10878 10874 10872 10870 10866 10866 10862 10858 10857 10853 10848 10850 10850
10902 10902 10901 10900 10899 10898 10897 10896 10896 10895 10895 10895 10895 10895 10894 10893 10893 10892 10892 10891 10890 10889 10888 10887 10886 10885 10882 10881 10879 10877 10876 10873 10872 10868 10866 10863 10860 10858 10856 10851 10848 10847 10840 10838 10836
10899 10899 10898 10896 10895 10895 10894 10893 10892 10892 10892 10891 10891 10890 10889 10889 10889 10888 10887 10886 10885 10884 10883 10882 10880 10879 10877 10874 10872 10870 10869 10867 10865 10862 10858 10856 10853 10850 10847 10844 10840 10836 10830 10827 10826
10896 10895 10894 10892 10891 10891 10891 10890 10889 10888 10888 10887 10887 10886 10885 10883 10884 10882 10882 10881 10880 10879 10878 10876 10875 10872 10870 10868 10866 10863 10860 10858 10855 10852 10851 10846 10842 10841 10834 10832 10826 10823 10819 10813 10815
10892 10892 10891 10889 10888 10887 10887 10886 10886 10885 10884 10884 10883 10882 10881 10879 10878 10879 10877 10876 10874 10873 10871 10869 10867 10865 10862 10860 10857 10856 10851 10847 10844 10841 10840 10836 10828 10827 10823 10819 10811 10806 10803 10799 10798
10887 10886 10886 10885 10884 10883 10882 10882 10882 10881 10880 10880 10879 10877 10876 10875 10873 10872 10871 10869 10867 10865 10864 10862 10858 10856 10853 10851 10847 10845 10842 10837 10834 10831 10829 10826 10820 10813 10808 10803 10798 10789 10786 10780 10782
10884 10883 10882 10880 10879 10879 10878 10877 10877 10876 10875 10875 10874 10871 10870 10869 10868 10866 10864 10862 10859 10857 10854 10851 10847 10844 10841 10838 10834 10831 10828 10823 10817 10813 10811 10810 10808 10796 10792 10785 10781 10774 10766 10762 10764
10878 10877 10877 10876 10875 10874 10872 10871 10871 10871 10869 10869 10868 10865 10864 10863 10861 10859 10857 10853 10850 10846 10844 10840 10835 10829 10828 10824 10820 10815 10812 10807 10804 10797 10795 10794 10796 10779 10771 10766 10760 10753 10746 10743 10748
10873 10873 10872 10871 10869 10869 10867 10866 10864 10865 10864 10863 10862 10859 10856 10854 10852 10850 10848 10843 10839 10836 10833 10830 10822 10815 10811 10810 10806 10800 10794 10791 10785 10777 10773 10774 10779 10765 10758 10753 10745 10731 10722 10720 10721
10868 10867 10866 10865 10864 10864 10863 10860 10859 10858 10856 10855 10853 10850 10847 10844 10843 10840 10835 10832 10828 10825 10821 10818 10808 10801 10796 10791 10787 10782 10780 10778 10768 10758 10750 10748 10748 10737 10727 10717 10711 10707 10701 10704 10703
10863 10861 10859 10858 10855 10855 10854 10854 10852 10849 10848 10846 10843 10840 10837 10834 10830 10827 10824 10820 10815 10811 10808 10805 10796 10788 10784 10778 10770 10761 10757 10755 10755 10740 10729 10729 10737 10719 10709 10695 10686 10681 10676 10671 10670
10856 10853 10851 10849 10847 10844 10845 10844 10842 10841 10838 10834 10831 10828 10826 10823 10819 10815 10811 10807 10804 10798 10794 10791 10779 10773 10769 10762 10756 10748 10737 10732 10724 10725 10712 10698 10716 10698 10686 10668 10661 10658 10649 10641 10638
10849 10845 10842 10839 10837 10835 10832 10831 10830 10830 10827 10822 10818 10815 10813 10810 10808 10806 10800 10793 10788 10784 10780 10773 10761 10755 10745 10737 10726 10727 10711 10706 10700 10692 10690 10677 10675 10680 10664 10649 10636 10625 10620 10614 10606
10838 10837 10833 10830 10828 10824 10821 10819 10818 10816 10818 10810 10804 10803 10799 10794 10792 10789 10784 10779 10771 10767 10761 10751 10745 10736 10730 10718 10704 10701 10689 10681 10675 10667 10661 10666 10626 10645 10634 10627 10602 10599 10595 10586 10575
10826 10824 10822 10820 10816 10814 10811 10808 10806 10804 10802 10797 10793 10789 10786 10779 10777 10774 10769 10761 10756 10752 10741 10734 10722 10709 10706 10695 10681 10670 10661 10654 10645 10632 10635 10623 10604 10604 10591 10584 10578 10563 10559 10550 10541
10815 10812 10809 10806 10805 10801 10799 10796 10794 10790 10788 10784 10780 10775 10770 10765 10761 10756 10752 10748 10742 10739 10737 10724 10709 10690 10680 10673 10659 10643 10627 10620 10625 10618 10613 10608 10587 10568 10553 10544 10539 10534 10527 10508 10503
10804 10800 10796 10794 10790 10787 10784 10783 10780 10774 10770 10770 10766 10761 10755 10753 10745 10741 10734 10726 10719 10714 10711 10707 10699 10677 10659 10651 10645 10637 10612 10586 10572 10575 10575 10583 10560 10543 10527 10506 10495 10492 10482 10472 10464
10792 10787 10782 10781 10778 10773 10769 10768 10767 10760 10754 10753 10748 10747 10739 10734 10729 10724 10716 10708 10702 10699 10688 10680 10683 10662 10643 10619 10605 10610 10592 10566 10534 10545 10525 10528 10516 10484 10478 10468 10452 10450 10445 10439 10431
10780 10775 10771 10766 10762 10759 10753 10749 10750 10745 10738 10735 10733 10727 10722 10716 10709 10702 10696 10683 10675 10667 10655 10648 10649 10644 10625 10607 10587 10568 10562 10545 10532 10503 10494 10498 10488 10461 10449 10432 10421 10414 10406 10409 10409
10767 10761 10754 10750 10747 10745 10739 10735 10730 10728 10721 10717 10711 10708 10702 10697 10692 10683 10673 10663 10650 10635 10624 10611 10606 10617 10598 10576 10557 10548 10523 10504 10487 10487 10452 10442 10446 10434 10420 10403 10393 10390 10385 10379 10374
10752 10748 10741 10735 10731 10728 10724 10719 10713 10708 10706 10701 10694 10689 10683 10676 10671 10658 10648 10637 10625 10614 10599 10586 10567 10566 10567 10551 10523 10511 10492 10468 10450 10449 10432 10410 10410 10391 10383 10378 10370 10367 10366 10359 10353
10734 10733 10725 10720 10716 10710 10706 10704 10700 10691 10686 10680 10674 10672 10665 10656 10644 10639 10623 10610 10599 10588 10571 10560 10542 10522 10521 10518 10491 10479 10461 10439 10418 10409 10402 10387 10372 10362 10354 10348 10347 10345 10342 10336 10337
10717 10714 10709 10704 10698 10693 10687 10681 10679 10678 10671 10660 10655 10647 10638 10629 10615 10610 10600 10586 10571 10558 10544 10529 10517 10494 10475 10463 10449 10450 10429 10408 10390 10378 10366 10358 10350 10332 10328 10325 10318 10319 10319 10316 10317
10697 10695 10689 10685 10680 10673 10668 10662 10656 10652 10646 10639 10633 10623 10614 10605 10594 10582 10567 10560 10541 10520 10506 10493 10488 10466 10454 10431 10419 10405 10385 10379 10362 10346 10338 10333 10322 10313 10307 10297 10295 10297 10297 10293 10296
10676 10673 10671 10663 10659 10653 10646 10643 10636 10628 10623 10614 10607 10597 10584 10573 10564 10562 10546 10528 10518 10499 10470 10457 10446 10427 10428 10395 10384 10374 10352 10343 10333 10324 10315 10306 10299 10292 10283 10278 10277 10277 10276 10276 10278
10654 10653 10649 10645 10635 10630 10625 10619 10612 10607 10599 10586 10578 10571 10556 10542 10534 10523 10511 10496 10481 10464 10447 10426 10407 10393 10395 10370 10359 10339 10328 10315 10306 10297 10293 10285 10279 10268 10263 10263 10260 10257 10260 10262 10264